STARLINK-30231, 57514

Orbit data source: Space-Track

STARLINK-30231, 57514 is a payload satellite owned by SpaceX/Seattle (US) in LEO that was launched on Mon, 07 Aug 2023 UTC via an FALCON 9 launch vehicle from the Air Force Eastern Test Range (AFETR). Payload-class satellites include a variety of spacecraft equipped with specific instruments for various scientific and technological missions. These include communications satellites like Starlink; space stations such as the ISS; scientific satellites like the Hubble; Earth observation satellites from companies like Planet Labs, Umbra, and HawkEye 360; GPS; miniature CubeSats for education and research; and military/defense satellites.

Loading next visibility...
Identifier
57514, 2023-113V
Orbit
LEO
Country
Flag of USUS
Related business
Manufacturer
SpaceX/Seattle
Mission
Operational Commercial Communications
Bus & Motor
STARLINK V2M, Unknown motor
Mass
730 kg wet, ~700 kg dry
Launch date (UTC)
2023-08-07 (3 years ago)
Launch vehicle
FALCON 9
Launch site
Air Force Eastern Test Range (AFETR)
Object type
Payload
Rocket body
Debris
Shape & HBR
Box + 2 Pan, 17.7 m
Radar Cross Section
33.884 m², Large (>1 m²)

Expand to show TLE details & history
Last TLE update: 2 days ago

TLE from 2 days ago
0 STARLINK-30231
1 57514U 23113V   26171.00396944  .00001508  00000-0  64262-4 0  9992
2 57514  43.0017 158.1761 0002553 154.4848 205.6131 15.27613240159326
Epoch: 2026-06-20T00:05Z
TLE epoch observation values (Epoch: 2026-06-20T00:05:42.959Z)
Latitude
0.00004°
Longitude
-111.47768°
Altitude
484.305 km
Speed
7.624 km/s
True Right ascension
10h 32m 42s
True Declination
0° 00' 00"
Sunlit
Object was in daylight at epoch
Visualization orbit readout
Latitude
Unknown
Longitude
Unknown
Altitude
Unknown
Speed
Unknown
Apparent Right ascension
Unknown
Apparent Declination
Unknown
Sunlit
N/A
Visualization observer readout
Local Sidereal Time
21:30:18
Azimuth
Unknown
Elevation
Unknown
Doppler factor
Unknown
Orbital elements
Apogee altitude
486.647 km
Perigee altitude
483.142 km
Semi-major axis
6,863.031 km
Eccentricity
0.00026
Inclination
43.0017°
RAAN
158.1761°
Arg. of periapsis
154.4848°
True anomaly
205.60046°
Mean anomaly
205.6131°
Eccentric anomaly
205.60678°
Mean motion
3.81741 °/min
Orbital period
94.3 mins
BSTAR
0.000064262
Loading maneuver chart data...
Computing Atmospheric mass density...
Loading historical data...
Loading historical data...
Loading historical data...
Loading historical data...
Loading historical data...
Loading historical data...
Loading historical data...

Documentation

Showing up to 5 results
|